星链-30862 (STARLINK-30862 )

导读

STARLINK-30862是美国SpaceX公司星链(Starlink)星座的卫星,属于第二代星链V2 Mini批次,于2024年2月25日发射入轨,执行星链6-39任务。星链项目旨在构建全球卫星互联网,为全球提供高速低延迟宽带服务,STARLINK-30862的成功发射进一步扩充了星链星座规模,助力SpaceX实现全球覆盖的卫星互联网布局。

基本信息
目录编号:
59032
目录名称:
STARLINK-30862
国际标识:
2024-038K
轨道中心:
EARTH
卫星名称:
星链-30862
卫星全名:
星链-30862 (STARLINK-30862 )
卫星状态:
在轨 (已飞行929 天)
发射日期:
2024-02-25 UTC
国别 :
美国 (US)
星等 :
--
该卫星已列入 空间交会检测服务 Space Conjunction Data Service (SCDS) ,当前飞行风险评估等级: 无高风险
轨道信息
数据来源 国际轨道数据
星历时间: 2026-09-09T11:52:26+0800
2天前
查看轨道信息
半长轴: 6861.177km
偏心率: 0.0000875
轨道倾角: 43.002°
近地点辐角 271.652°
升交点赤经 60.025°
平近点角 88.423°
近地点: 482.439km
远地点: 483.641km
周期: 94.267分钟
每日圈数: 15.275831
详细信息
固有亮度:
5
最大亮度:
0.3
卫星平台:
Starlink v2.0 mini
覆盖范围:
全球
运营商:
太空探索技术公司
运营商所在国:
美国
制造商(研发单位):
太空探索技术公司
制造商所在国:
美国
使用方式:
暂无
卫星简介
星链(Starlink)计划是由太空探索技术公司(SpaceX)提出的一个巨型低轨卫星互联网星座项目,计划在2019年至2024年间在太空搭建由约1.2万颗卫星组成的“星链”网络,其中1584颗将部署在地球上空550千米处的近地轨道,并从2020年开始工作。该卫星仍在工作。
2D轨道图
3D轨道图
轨道高度分析图
轨道倾角分析图
轨道综合分析图
查看轨道综合分析图
交会数据列表
事件ID 空间交会对象 最接近时刻(TCA) 交会距离 交会风险概率(CRP) 交会风险指数(CRI) 操作
CDM_260912-175705-903206-679221
2026-09-12T
17:57:57+0000
0.921 km
远距离
2.300244E-5 中风险 0.62
CDM_260913-022605-903206-368421
2026-09-13T
02:26:41+0000
0.716 km
远距离
1.716811E-5 中风险 0.6
CDM_260913-000505-903206-368421
2026-09-13T
00:05:27+0000
0.786 km
远距离
1.257855E-5 中风险 0.57
CDM_260913-054405-903206-679221
2026-09-13T
05:44:05+0000
1.275 km
极远距离
7.482098E-6 低风险 0.52
CDM_260912-193205-903206-679221
2026-09-12T
19:32:06+0000
1.866 km
极远距离
2.295128E-6 低风险 0.42
CDM_260913-040905-903206-679221
2026-09-13T
04:09:56+0000
2.097 km
极远距离
1.719185E-6 低风险 0.4
CDM_260907-130105-903206-387521
2026-09-07T
13:01:14+0000
2.963 km
极远距离
9.286087E-7 极低风险 0.34
CDM_260913-005205-903206-368421
2026-09-13T
00:52:32+0000
2.543 km
极远距离
4.761712E-7 极低风险 0.29
CDM_260912-223105-903206-368421
2026-09-12T
22:31:18+0000
2.874 km
极远距离
4.096629E-7 极低风险 0.27
与全量物体交会距离演化趋势
与全量物体交会风险概率演化趋势